    Observer details:
    104 San Marcello Pistoiese.  Observers P. Bacci, M. Maestripieri.  Measurers
        P. Bacci, L. Tesi, G. Fagioli.  0.60-m reflector + CCD.
    160 Castelmartini.  Observers M. Jaeger, E. Prosperi, S. Prosperi.  Measurer
        E. Prosperi.  0.36-m f/10.2 Schmidt-Cassegrain + CCD.
    203 GiaGa Observatory.  Observers S. Foglia, G. Galli.  Measurer G. Galli.
        0.36-m f/5.76 Schmidt-Cassegrain + CCD.
    204 Schiaparelli Observatory.  Observer L. Buzzi.  0.84-m f/3.5 reflector +
        CCD.
    595 Farra d'Isonzo.  Observer E. Pettarin.  0.40-m f/5.15 reflector + CCD.
    703 Catalina Sky Survey.  Observer R. A. Kowalski.  Measurers E. J.
        Christensen, G. A. Farneth, D. C. Fuls, A. R. Gibbs, A. D. Grauer, H.
        Groeller, R. A. Kowalski, S. M. Larson, G. J. Leonard, T. A. Pruyne, D.
        Rankin, R. L. Seaman, F. C. Shelly, K. W. Wierzchos.  0.68-m Schmidt + 10K
        CCD.
    718 Tooele.  Observer P. Wiggins.  0.35-m f/5.5 Schmidt-Cassegrain + CCD.
    858 Tebbutt Observatory, Edgewood.  Observer F. B. Zoltowski.  0.51-m Schmidt-
        Cassegrain + CCD.
    958 Observatoire de Dax.  Observer P. Dupouy.  0.32-m f/4.1 Schmidt-
        Cassegrain.
    B49 Paus Observatory, Sabadell.  Observer J. Camarasa.  0.30-m f/4 reflector +
        CCD.
    C95 SATINO Remote Observatory, Haute Provence.  Observer J. Jahn.  0.60-m
        f/3.2 Newtonian reflector + CCD.
    I52 Steward Observatory, Mt. Lemmon Station.  Observer H. Groeller.  Measurers
        E. J. Christensen, G. A. Farneth, D. C. Fuls, A. R. Gibbs, A. D. Grauer,
        H. Groeller, R. A. Kowalski, S. M. Larson, G. J. Leonard, T. A. Pruyne, D.
        Rankin, R. L. Seaman, F. C. Shelly, K. W. Wierzchos.  1.0-m reflector +
        CCD.
    I93 St Pardon de Conques.  Observer F. Losse.  0.40-m f/3.7 reflector + CCD.
    K19 PASTIS Observatory, Banon.  Observer C. Demeautis.  0.16-m f/3.3 reflector
        + CCD.
    K38 M57 Observatory, Saltrio.  Observer G. Baj.  0.3-m f/5.5 Ritchey-Chretien
        + CCD.
    L01 Visnjan Observatory, Tican.  Observers K. Korlevic, V. Dobos, D. Pujagic.
        Measurer K. Korlevic.  1.0-m f/2.9 reflector + CCD.
    L70 Zvjezdarnica Graberje, Zagreb.  Observer M. Himelreich.  0.25-m reflector
        + CCD.
    N51 GROWTH India Telescope, IAO, Hanle.  Observers K. Sharma, H. Kumar, U.
        Stanzin, V. Bhalerao, G. C. Anupama, S. Barway.  Measurers K. Sharma, B.
        T. Bolin.  0.70-m f/6.5 Corrected Dall-Kirkham + CCD.
    T05 ATLAS-HKO, Haleakala.  Observers L. Denneau, J. Tonry, A. Heinze, H.
        Weiland.  Measurers L. Denneau, J. Tonry, A. Heinze, H. Weiland, H.
        Flewelling, A. Fitzsimmons, J. Robinson, N. Erasmus.  0.5-m reflector +
        CCD.
    W34 Squirrel Valley Observatory, Columbus.  Observer R. L. Flynn.  0.36-m
        Schmidt-Cassegrain + CCD.
    
    First and last observations above in comparison with prediction:
    Residuals in seconds of arc (or zero decimals in degrees), reference and Delta-T
    201018 T05   60-   19-    201019 703   59-   14-    MPO149110   -17.5 days
    
    Orbital elements:
    2008 UU95                                                Earth MOID = 0.0120 AU
    Epoch 2020 Dec. 17.0 TT = JDT 2459200.5                 Veres
    M  25.01147              (2000.0)            P               Q
    n   0.24701211     Peri.   26.67986     +0.78824876     +0.61508995
    a   2.5156905      Node   295.34989     -0.56809901     +0.71608279
    e   0.6849091      Incl.    1.14875     -0.23648978     +0.32998454
    P   3.99           H   23.6           G   0.15           U   2
    Residuals in seconds of arc
    081030 G96  0.1+  0.1-    201018 T05  0.3+  0.3-    201018 160  0.0   0.2-
    081030 G96  0.3-  0.5-    201018 T05  0.1-  0.3-    201018 160  0.4-  0.3+
    081030 G96  0.3+  0.3-    201018 T05  0.3+  0.0     201018 I93  0.2+  0.2-
    081030 G96  0.2+  0.1-    201018 T05  0.1-  0.2+    201018 I93  0.1+  0.1+
    081030 G96  0.3+  0.1-    201018 T05  0.7+  0.8-    201018 I93  0.1-  0.0
    081030 H01  0.2-  0.4+    201018 T05  0.1+  0.0     201018 C95  0.5+  0.1+
    081030 H01  0.1-  0.3+    201018 T05  0.9-  0.6+    201018 C95  0.4-  0.5+
    081030 H01  0.2-  0.4+    201018 T05 (1.7-  1.1+)   201018 958  0.4-  0.5-
    081030 G96  0.1+  0.2+    201018 204  0.1-  0.1+    201018 C95  0.2-  0.3-
    081030 H01  0.1-  0.4+    201018 204  0.1-  0.1+    201018 958  0.3-  0.0
    081030 G96  0.3-  0.0     201018 K19  0.2+  0.4-    201018 203  0.3+  0.0
    081030 G96 (2.2-  0.4-)   201018 204  0.1+  0.1+    201018 C95  0.2+  0.3-
    081030 J95  0.1-  0.3-    201018 K19  0.3+  0.2-    201018 958  0.1+  0.1+
    081030 J95  0.2+  0.1+    201018 K19  0.1-  0.1+    201018 203  0.2+  0.0
    081030 J95  0.3+  0.5-    201018 K19  0.5+  0.4-    201018 203  0.3+  0.1-
    081031 448  0.0   0.1+    201018 K19  0.1-  0.0     201018 B49  0.3+  0.3-
    081031 448  0.3+  0.1+    201018 K19  0.7+  0.6+    201018 B49  0.0   0.1+
    081031 448  0.9+  0.6-    201018 K19  0.3-  0.3+    201018 B49  0.0   0.2+
    081101 291  0.3-  0.2+    201018 L01  0.1+  0.1-    201018 B49  0.5-  0.6+
    081101 291  0.5-  0.3-    201018 L01  0.1+  0.2-    201018 B49  0.3-  0.4+
    081101 291 (1.7+  0.1-)   201018 L01  0.1+  0.1-    201018 B49  0.1-  0.4+
    081102 291  0.5-  0.1+    201018 L01  0.1-  0.0     201018 W34  0.3+  0.4-
    081102 291  0.3-  0.2+    201018 K19  0.3+  0.1-    201019 W34  0.2+  0.0
    081102 291  0.2-  0.2+    201018 L01  0.2+  0.1-    201019 W34  0.1+  0.2-
    081106 291  0.5-  0.0     201018 K19  0.2+  0.1+    201019 I52  0.1-  0.1+
    081106 291  0.4-  0.2+    201018 104  0.1+  0.2+    201019 I52  0.0   0.0
    081106 291  0.1-  0.1+    201018 104  0.0   0.2-    201019 I52  0.0   0.0
    081106 G96  0.1-  0.1+    201018 104  0.1-  0.1+    201019 I52  0.1-  0.1-
    081106 G96  0.4-  0.5-    201018 L70 (1.6-  0.8+)   201019 718  0.3+  1.1+
    081106 G96  0.1-  0.0     201018 L70 (2.0-  1.1+)   201019 718  0.4-  0.9+
    081106 G96  0.1+  0.2-    201018 L70  0.3-  0.4+    201019 718  0.2+  0.0
    081107 291  0.1+  0.5-    201018 K38  0.3-  0.1-    201019 718  0.9-  0.4+
    081107 291  0.1-  0.2+    201018 595  0.1-  0.1+    201019 718 (0.1-  1.9+)
    081107 291  1.0-  0.4+    201018 595  0.2+  0.1+    201019 718 (0.5-  1.7+)
    081109 291  0.4+  0.4+    201018 N51 (2.0+  2.0-)   201019 858  0.1+  0.2+
    081109 291  0.3+  0.7+    201018 K38  0.2-  0.3-    201019 858  0.1+  0.0
    081109 291  0.4-  0.3+    201018 N51  0.4-  0.5-    201019 858  0.1+  0.3+
    081120 291  0.1+  0.7+    201018 N51  0.1-  0.6+    201019 703  0.5+  1.2-
    081120 291  1.2+  0.1+    201018 595  0.1-  0.3-    201019 703  0.2+  0.1+
    081120 291  0.1-  0.1+    201018 K38  0.2-  0.0     201019 703  1.0-  0.2+
    201018 T05  0.1+  0.8-    201018 160  0.1-  0.0
    
    Ephemeris:
    2008 UU95                a,e,i = 2.52, 0.68, 1                   q = 0.7927
    Date    TT    R. A. (2000) Decl.     Delta      r    Elong.  Phase     V
    2020 09 19    14 20 02.3 -11 17 22   0.2722  0.8163    40.3   127.2    25.8
    ...
    2020 10 04    14 43 14.3 -07 04 42   0.1178  0.9010    30.7   145.5    26.4
    ...
    2020 10 12    15 24 28.5 +08 33 54   0.04322 0.9640    37.2   141.2    23.7
    ...
    2020 10 18    23 49 46.7 +49 57 41   0.02858 1.0166   134.4    44.4    17.6
    2020 10 19    00 40 20.7 +42 52 29   0.03591 1.0257   144.9    33.9    17.8
    2020 10 20    01 06 50.2 +37 40 32   0.04415 1.0349   151.7    27.2    18.1
    ...
    2020 10 26    01 53 47.9 +25 06 35   0.09972 1.0915   167.2    11.7    19.5
    ...
    2020 11 03    02 07 06.7 +20 34 42   0.1798  1.1701   171.7     7.1    20.7
    ...
    2020 11 18    02 16 16.1 +17 50 14   0.3467  1.3219   161.5    13.7    22.7
    
    A. U. Tomatic                (C) Copyright 2020 MPC           M.P.E.C. 2020-U127
    


    Read MPEC 2020-U126 Read MPEC 2020-U128


    MPEC number:

    Enter an MPEC number in one of the following forms:

    • 1997-B01 (the full form)
    • J97B01 (the packed version of the full form)
    • B01 (the abbreviated form)